{"data":{"norad_id":51947,"intl_designator":"2022-023B","name":"2022-023B","alt_names":[],"object_type":"PAYLOAD","status":"ACTIVE","operator":null,"country":"PRC","launch_date":"2022-03-05","launch_site_code":"XICLF","launch_vehicle":null,"mission":null,"orbit_class":"UNKNOWN","rcs_meters":null,"size_class":null,"mass_kg":null,"dimensions":null,"purposes":[],"wikipedia_slug":null,"has_3d_model":false,"image_url":null,"decayed_at":null,"tle_current":{"epoch":"2026-09-20T22:49:40.874592Z","epoch_age_seconds":79849,"freshness":"FRESH","line1":"1 51947U 22023B   26263.95116753  .00010486  00000+0  44094-3 0  9993","line2":"2 51947  63.4781 304.6948 0114593 350.7796   9.1210 15.18041204252256","mean_motion":15.18041204,"eccentricity":0.0114593,"inclination_deg":63.4781,"raan_deg":304.6948,"arg_perigee_deg":350.7796,"mean_anomaly_deg":9.121,"bstar":0.00044094,"rev_number":25225,"period_min":94.859085261035,"perigee_km":432.80773257209,"apogee_km":590.71455213746,"semimajor_km":6889.8981423548,"source":"CELESTRAK","updated_at":"2026-09-21T09:00:08.415146Z"}}}